Weather History for KAJZ - September, 2013

Change the Weather History Date:

Saturday, September 21, 2013

  Actual Average (KMTJ) Record (KMTJ)
Temperature  
Mean Temperature 70 °F 60 °F  
Max Temperature 87 °F 76 °F 84 °F (2001)
Min Temperature 53 °F 45 °F 37 °F (1996)
Degree Days  
Heating Degree Days 0 5  
Month to date heating degree days 57  
Since 1 July heating degree days 62  
Cooling Degree Days 5 1  
Month to date cooling degree days 36  
Year to date cooling degree days 641  
Growing Degree Days 20 (Base 50)    
Moisture  
Dew Point 39 °F    
Average Humidity 36    
Maximum Humidity 65    
Minimum Humidity 14    
Precipitation  
Precipitation 0.00 in 0.05 in 0.81 in (2004)
Month to date precipitation 0.89  
Year to date precipitation 8.22  
Sea Level Pressure  
Sea Level Pressure 30.02 in    
Wind  
Wind Speed 6 mph (East)    
Max Wind Speed 17 mph    
Max Gust Speed 30 mph    
Visibility 10 miles    
Events Thunderstorm    
T = Trace of Precipitation, MM = Missing Value Source: NWS Daily Summary

Daily Weather History Graph

Daily Weather History Graph

Search for Another Location

Airport or City:

Trip Planner

Search our weather history database for the weather conditions in past years. The results will help you decide how hot, cold, wet, or windy it might be!

Date:

Astronomy

Sep. 21, 2013 Rise Set
Actual Time 6:59 AM MDT 7:10 PM MDT
Civil Twilight 6:32 AM MDT 7:36 PM MDT
Nautical Twilight 6:01 AM MDT 8:07 PM MDT
Astronomical Twilight 5:29 AM MDT 8:39 PM MDT
Moon 8:25 PM MDT (9/21) 9:19 AM MDT (9/21)
Length of Visible Light 13h 04m
Length of Day
12h 11m
Waning Gibbous, 94% of the Moon is Illuminated
Sep 21
Waning Gibbous
Sep 26
Last Quarter
Oct 4
New
Oct 11
First Quarter
Oct 18
Full

Hourly Weather History & Observations

Time (MDT) Temp. Dew Point Humidity Pressure Visibility Wind Dir Wind Speed Gust Speed Precip Events Conditions
12:15 AM 57.7 °F 35.2 °F 43% 30.09 in 10.0 mi ENE 5.8 mph - N/A   Clear
12:35 AM 58.1 °F 35.2 °F 42% 30.09 in 10.0 mi ENE 5.8 mph - N/A   Clear
12:55 AM 57.2 °F 35.1 °F 43% 30.10 in 10.0 mi East 4.6 mph - N/A   Scattered Clouds
1:15 AM 56.3 °F 35.8 °F 46% 30.10 in 10.0 mi NE 5.8 mph - N/A   Mostly Cloudy
1:35 AM 56.5 °F 35.1 °F 45% 30.09 in 10.0 mi NE 9.2 mph - N/A   Mostly Cloudy
1:55 AM 57.4 °F 34.7 °F 43% 30.10 in 10.0 mi NE 4.6 mph - N/A   Mostly Cloudy
2:15 AM 57.6 °F 34.9 °F 43% 30.09 in 10.0 mi NE 6.9 mph - N/A   Mostly Cloudy
2:35 AM 57.4 °F 35.1 °F 43% 30.09 in 10.0 mi ENE 6.9 mph - N/A   Mostly Cloudy
2:55 AM 56.7 °F 35.8 °F 46% 30.08 in 10.0 mi ENE 8.1 mph - N/A   Overcast
3:15 AM 57.4 °F 35.2 °F 43% 30.08 in 10.0 mi ENE 5.8 mph - N/A   Overcast
3:35 AM 57.2 °F 35.6 °F 44% 30.09 in 10.0 mi Calm Calm - N/A   Overcast
3:55 AM 56.3 °F 36.5 °F 47% 30.08 in 10.0 mi NE 6.9 mph - N/A   Mostly Cloudy
4:15 AM 57.4 °F 35.2 °F 43% 30.08 in 10.0 mi NE 6.9 mph - N/A   Mostly Cloudy
4:35 AM 58.5 °F 34.7 °F 41% 30.08 in 10.0 mi NE 8.1 mph - N/A   Mostly Cloudy
4:55 AM 58.3 °F 35.1 °F 42% 30.08 in 10.0 mi East 6.9 mph - N/A   Mostly Cloudy
5:15 AM 56.8 °F 34.9 °F 44% 30.08 in 10.0 mi ENE 4.6 mph - N/A   Overcast
5:35 AM 55.8 °F 36.3 °F 48% 30.09 in 10.0 mi Calm Calm - N/A   Mostly Cloudy
5:55 AM 54.0 °F 39.0 °F 57% 30.09 in 10.0 mi Calm Calm - N/A   Mostly Cloudy
6:15 AM 53.8 °F 39.7 °F 59% 30.08 in 10.0 mi North 3.5 mph - N/A   Mostly Cloudy
6:35 AM 53.6 °F 39.9 °F 60% 30.09 in 10.0 mi Calm Calm - N/A   Scattered Clouds
6:55 AM 54.1 °F 38.3 °F 55% 30.10 in 10.0 mi East 4.6 mph - N/A   Scattered Clouds
7:15 AM 54.5 °F 38.1 °F 54% 30.10 in 10.0 mi Calm Calm - N/A   Mostly Cloudy
7:35 AM 55.2 °F 37.8 °F 52% 30.11 in 10.0 mi NE 5.8 mph - N/A   Mostly Cloudy
7:55 AM 55.6 °F 39.2 °F 54% 30.11 in 10.0 mi Calm Calm - N/A   Mostly Cloudy
8:15 AM 58.5 °F 38.1 °F 47% 30.11 in 10.0 mi East 5.8 mph - N/A   Scattered Clouds
8:35 AM 58.8 °F 40.3 °F 50% 30.12 in 10.0 mi East 6.9 mph - N/A   Scattered Clouds
8:55 AM 61.7 °F 39.6 °F 44% 30.12 in 10.0 mi East 3.5 mph - N/A   Scattered Clouds
9:15 AM 63.1 °F 40.1 °F 43% 30.12 in 10.0 mi ESE 5.8 mph - N/A   Clear
9:35 AM 65.1 °F 39.7 °F 39% 30.12 in 10.0 mi ENE 4.6 mph - N/A   Clear
9:55 AM 67.3 °F 38.7 °F 35% 30.11 in 10.0 mi ENE 5.8 mph - N/A   Clear
10:15 AM 69.6 °F 38.5 °F 32% 30.11 in 10.0 mi ENE 4.6 mph - N/A   Clear
10:35 AM 70.7 °F 39.2 °F 32% 30.11 in 10.0 mi East 4.6 mph - N/A   Clear
10:55 AM 73.2 °F 39.0 °F 29% 30.10 in 10.0 mi Calm Calm - N/A   Clear
11:15 AM 75.2 °F 38.8 °F 27% 30.09 in 10.0 mi East 4.6 mph - N/A   Clear
11:35 AM 76.6 °F 39.6 °F 26% 30.08 in 10.0 mi SE 5.8 mph - N/A   Clear
11:55 AM 77.9 °F 40.1 °F 26% 30.07 in 10.0 mi SE 4.6 mph - N/A   Clear
12:15 PM 79.2 °F 39.2 °F 24% 30.07 in 10.0 mi SE 4.6 mph - N/A   Clear
12:35 PM 80.4 °F 39.4 °F 23% 30.06 in 10.0 mi Calm Calm - N/A   Clear
12:55 PM 81.0 °F 37.9 °F 21% 30.05 in 10.0 mi Calm Calm - N/A   Clear
1:15 PM 82.2 °F 37.2 °F 20% 30.04 in 5.0 mi SE 3.5 mph - N/A   Clear
1:35 PM 82.9 °F 37.9 °F 20% 30.02 in 10.0 mi SW 4.6 mph - N/A   Clear
1:55 PM 81.9 °F 37.0 °F 20% 30.01 in 10.0 mi Calm Calm - N/A   Scattered Clouds
2:15 PM 82.0 °F 36.9 °F 20% 30.00 in 7.0 mi West 3.5 mph - N/A   Mostly Cloudy
2:35 PM 84.6 °F 36.3 °F 18% 29.98 in 10.0 mi South 8.1 mph - N/A   Mostly Cloudy
2:55 PM 87.8 °F 32.7 °F 14% 29.97 in 10.0 mi SW 16.1 mph 21.9 mph N/A   Scattered Clouds
3:15 PM 86.2 °F 32.5 °F 15% 29.96 in 10.0 mi SSW 16.1 mph 25.3 mph N/A   Clear
3:35 PM 86.2 °F 32.4 °F 15% 29.95 in 10.0 mi SW 10.4 mph 24.2 mph N/A   Clear
3:55 PM 86.0 °F 33.4 °F 15% 29.94 in 10.0 mi SW 15.0 mph 29.9 mph N/A   Scattered Clouds
4:15 PM 87.1 °F 32.7 °F 14% 29.93 in 10.0 mi SSW 17.3 mph 25.3 mph N/A   Clear
4:35 PM 86.0 °F 32.2 °F 14% 29.93 in 10.0 mi SSW 15.0 mph 26.5 mph N/A   Clear
4:55 PM 85.6 °F 32.4 °F 15% 29.92 in 10.0 mi SW 12.7 mph 19.6 mph N/A   Clear
5:15 PM 85.3 °F 33.3 °F 15% 29.92 in 10.0 mi SSW 12.7 mph - N/A   Clear
5:35 PM 84.7 °F 34.0 °F 16% 29.91 in 10.0 mi SW 11.5 mph 19.6 mph N/A   Clear
5:55 PM 83.3 °F 34.9 °F 18% 29.90 in 10.0 mi SW 8.1 mph - N/A   Clear
6:15 PM 82.4 °F 37.4 °F 20% 29.90 in 10.0 mi SSW 8.1 mph - N/A   Clear
6:35 PM 80.6 °F 38.1 °F 22% 29.89 in 10.0 mi South 6.9 mph - N/A   Clear
6:55 PM 79.2 °F 38.1 °F 23% 29.89 in 10.0 mi SSW 5.8 mph - N/A   Scattered Clouds
7:15 PM 77.2 °F 37.9 °F 24% 29.88 in 10.0 mi SSW 5.8 mph - N/A   Scattered Clouds
7:35 PM 76.3 °F 38.5 °F 26% 29.87 in 10.0 mi Calm Calm - N/A   Clear
7:55 PM 75.6 °F 38.8 °F 27% 29.87 in 7.0 mi Calm Calm - N/A   Clear
8:15 PM 74.7 °F 39.2 °F 28% 29.87 in 7.0 mi Calm Calm - N/A   Clear
8:35 PM 69.8 °F 40.8 °F 35% 29.87 in 10.0 mi North 3.5 mph - N/A   Clear
8:55 PM 68.2 °F 44.1 °F 42% 29.88 in 10.0 mi Calm Calm - N/A   Clear
9:15 PM 69.1 °F 41.4 °F 37% 29.90 in 10.0 mi SSW 5.8 mph - N/A   Scattered Clouds
9:35 PM 68.9 °F 49.5 °F 50% 29.92 in 7.0 mi SW 13.8 mph 24.2 mph N/A   Overcast
9:55 PM 69.3 °F 51.1 °F 52% 29.94 in 10.0 mi Calm Calm - N/A   Mostly Cloudy
10:15 PM 69.8 °F 48.4 °F 46% 29.93 in 10.0 mi NW 3.5 mph - N/A   Mostly Cloudy
10:35 PM 67.1 °F 53.4 °F 61% 29.92 in 5.0 mi North 8.1 mph - N/A   Overcast
10:55 PM 66.0 °F 53.1 °F 63% 29.92 in 10.0 mi NE 11.5 mph - N/A   Mostly Cloudy
11:15 PM 65.8 °F 51.3 °F 59% 29.91 in 10.0 mi NNE 16.1 mph - N/A   Mostly Cloudy
11:35 PM 66.7 °F 50.7 °F 56% 29.92 in 10.0 mi NNE 10.4 mph - N/A Thunderstorm Mostly Cloudy
11:55 PM 64.4 °F 52.3 °F 65% 29.90 in 10.0 mi NE 11.5 mph - N/A   Mostly Cloudy